Flag for Germany Weather past 2 weeks in Idar-Oberstein, Rhineland-Palatinate, Germany

Now
59 °F

Clear.


Feels Like: 58 °F
Forecast: 54 / 90 °F
Wind: 6 mph from Northwest

Location: Hahn

Current Time: Jul 6, 2015 at 5:06:47 AM

Latest Report: Jul 6, 2015 at 4:20 AM


Visibility: 10 mi

Pressure: 30.18 "Hg

Humidity: 94%

Dew point: 57 °F

Location of Idar-ObersteinLocation

Historic Weather in Idar-Oberstein — Graph

°F

Idar-Oberstein temperature yesterday

Maximum temperature yesterday: 91 °F (at 1:20 PM)
Minimum temperature yesterday: 63 °F (at 10:50 PM)
Average temperature yesterday: 78 °F

Past Weeks' High & Low Weather Summary

 TemperatureHumidityPressure
High93 °F (Jul 4, 4:50 PM)100% (Jun 21, 5:20 AM)30.30 "Hg (Jun 21, 5:20 AM)
Low43 °F (Jun 23, 3:50 AM)30% (Jul 5, 4:50 PM)29.68 "Hg (Jun 22, 9:50 PM)
Average66 °F67%30.11 "Hg
* Reported Jun 21 3:20 AM — Jul 6 3:50 AM, Idar-Oberstein, Weather by CustomWeather, © 2015

Note: Actual official high and low records may vary slightly from our data, if they occured in-between our weather recording intervals... More about our weather records

Advertising

Idar-Oberstein weather history for previous 24 hours

 ConditionsComfort  
Time TempWeatherWind HumidityBarometerVisibility
3:50 AM
Mon, Jul 6
57 °FClear.6 mph100%30.18 "Hg10 mi
3:20 AM59 °FPassing clouds.8 mph94%30.18 "HgN/A
2:50 AM59 °FClear.8 mph94%30.18 "Hg10 mi
2:20 AM61 °FClear.8 mph88%30.15 "Hg10 mi
1:50 AM61 °FPassing clouds.10 mph88%30.15 "HgN/A
1:20 AM61 °FPassing clouds.10 mph94%30.12 "HgN/A
12:50 AM61 °FPassing clouds.7 mph94%30.12 "HgN/A
12:20 AM63 °FPassing clouds.8 mph94%30.09 "HgN/A
11:50 PM
Sun, Jul 5
63 °FPassing clouds.9 mph94%30.09 "HgN/A
11:20 PM63 °FClear.8 mph94%30.07 "Hg10 mi
10:50 PM63 °FClear.8 mph94%30.07 "Hg10 mi
10:20 PM64 °FPassing clouds.9 mph94%30.07 "HgN/A
9:50 PM66 °FSprinkles. Scattered clouds.9 mph88%30.04 "HgN/A
9:20 PM70 °FSunny.13 mph83%30.04 "Hg10 mi
8:50 PM75 °FSunny.12 mph69%30.01 "Hg10 mi
8:20 PM77 °FPassing clouds.13 mph65%29.98 "HgN/A
7:50 PM82 °FSunny.15 mph55%29.98 "Hg10 mi
7:20 PM88 °FPassing clouds.9 mph38%29.95 "HgN/A
6:50 PM90 °FPassing clouds.13 mph33%29.95 "HgN/A
6:20 PM91 °FPassing clouds.14 mph30%29.95 "HgN/A
5:50 PM91 °FSunny.14 mph30%29.95 "Hg10 mi
5:20 PM91 °FPassing clouds.14 mph30%29.95 "HgN/A
4:50 PM91 °FPassing clouds.17 mph30%29.95 "HgN/A
4:20 PM91 °FPassing clouds.15 mph34%29.98 "HgN/A
3:50 PM88 °FPassing clouds.13 mph43%29.98 "HgN/A
3:20 PM90 °FPassing clouds.12 mph41%30.01 "HgN/A
2:50 PM90 °FPassing clouds.12 mph38%30.01 "HgN/A
2:20 PM90 °FPassing clouds.13 mph41%30.01 "HgN/A
1:50 PM91 °FPassing clouds.13 mph36%30.01 "HgN/A
1:20 PM91 °FSunny.14 mph36%30.04 "Hg10 mi
12:50 PM90 °FPassing clouds.13 mph38%30.04 "HgN/A
12:20 PM90 °FPassing clouds.12 mph41%30.04 "HgN/A
11:50 AM88 °FPassing clouds.10 mph46%30.04 "HgN/A
11:20 AM84 °FSunny.13 mph51%30.07 "Hg10 mi
10:50 AM82 °FSunny.10 mph58%30.07 "Hg10 mi
10:20 AM82 °FSunny.12 mph58%30.07 "Hg10 mi
9:50 AM79 °FPassing clouds.7 mph61%30.07 "HgN/A
9:20 AM77 °FSunny.8 mph65%30.07 "Hg10 mi
8:50 AM75 °FSunny.6 mph69%30.09 "Hg10 mi
8:20 AM73 °FSunny.6 mph69%30.09 "Hg10 mi
7:50 AM72 °FPassing clouds.6 mph69%30.09 "HgN/A
7:20 AM70 °FPassing clouds.6 mph73%30.09 "HgN/A
6:50 AM68 °FPassing clouds.6 mph73%30.09 "HgN/A
6:20 AM66 °FClear.5 mph78%30.12 "Hg10 mi
5:50 AM68 °FPassing clouds.6 mph73%30.12 "HgN/A
5:20 AM68 °FPassing clouds.6 mph73%30.12 "HgN/A
Weather by CustomWeather, © 2015

See weather overviewHow to use our weather pages